Location: B?jaj?g
(11.7167°N, 92.6667°E)
Time: 22:48:18
(UTC+00:00)

ARIANE 5 R/B - Pass Details

Date: 18 September 2020
Orbit: 238 x 24831 km, 6.9° (Epoch: 21 October)

Event Time Altitude Azimuth Distance (km) Brightness Sun altitude
Exits shadow 22:40:14 17° 267° (W) 8,097 7.5 -15.1°
Maximum altitude 22:57:38 56° 197° (SSW) 1,605 4.5 -10.8°
Drops below altitude 10° 23:02:02 10° 117° (ESE) 2,116 6.3 -9.8°
Sets 23:03:21 0° 111° (ESE) 2,652 7.2 -9.5°
